When you browse on this site, cookies collect data to enhance your experience and personalize the content and advertising you see.
Visit our Privacy Policy to learn more. By continuing to use the site, you agree to this use of cookies and data.
  • In Czech Republic
  • List of Countries
  • For 7 days
  • Water Temperature
  • Weather Map
  • Weather Widgets
  • user-avatar
    Login

    Hourly Weather Borogoncy

    Today, 27 May, Wednesday

    Time Temperature Precipitation Wind Pressure Humidity
    00:00 +16°C° 0.1 mm 1 mps 733 mmHg 56%
    01:00 +16°C° 0.1 mm 1 mps 732 mmHg 62%
    02:00 +15°C° 0.1 mm 2 mps 732 mmHg 68%
    03:00 +14°C° 0 mm 1 mps 732 mmHg 71%
    04:00 +15°C° 0.1 mm 1 mps 732 mmHg 70%
    05:00 +18°C° 0.1 mm 1 mps 732 mmHg 69%
    06:00 +19°C° 0.1 mm 1 mps 732 mmHg 68%
    07:00 +21°C° 0 mm 1 mps 732 mmHg 58%
    08:00 +24°C° 0 mm 1 mps 731 mmHg 49%
    09:00 +27°C° 0 mm 1 mps 731 mmHg 36%
    10:00 +28°C° 0 mm 1 mps 731 mmHg 33%
    11:00 +28°C° 0 mm 2 mps 731 mmHg 29%
    12:00 +29°C° 0 mm 2 mps 731 mmHg 26%
    13:00 +29°C° 0 mm 3 mps 730 mmHg 27%
    14:00 +29°C° 0 mm 3 mps 730 mmHg 28%
    15:00 +29°C° 0 mm 3 mps 729 mmHg 28%
    16:00 +28°C° 0 mm 3 mps 729 mmHg 30%
    17:00 +27°C° 0 mm 3 mps 730 mmHg 32%
    18:00 +27°C° 0 mm 2 mps 730 mmHg 34%
    19:00 +24°C° 0 mm 2 mps 730 mmHg 43%
    20:00 +21°C° 0 mm 2 mps 729 mmHg 52%
    21:00 +18°C° 0 mm 2 mps 729 mmHg 62%
    22:00 +17°C° 0 mm 2 mps 729 mmHg 64%
    23:00 +18°C° 0 mm 1 mps 728 mmHg 67%

    Tomorrow, 28 May, Thursday

    Time Temperature Precipitation Wind Pressure Humidity
    00:00 +16°C° 0 mm 1 mps 728 mmHg 70%
    01:00 +16°C° 0 mm 2 mps 728 mmHg 69%
    02:00 +16°C° 0 mm 2 mps 727 mmHg 67%
    03:00 +16°C° 0 mm 3 mps 727 mmHg 65%
    04:00 +17°C° 0 mm 3 mps 727 mmHg 63%
    05:00 +18°C° 0 mm 3 mps 727 mmHg 60%
    06:00 +18°C° 0 mm 3 mps 727 mmHg 57%
    07:00 +19°C° 0 mm 4 mps 728 mmHg 57%
    08:00 +19°C° 0 mm 4 mps 728 mmHg 56%
    09:00 +20°C° 0 mm 4 mps 728 mmHg 56%
    10:00 +20°C° 0 mm 4 mps 728 mmHg 54%
    11:00 +21°C° 0 mm 4 mps 728 mmHg 53%
    12:00 +21°C° 0 mm 4 mps 728 mmHg 51%
    13:00 +20°C° 0.2 mm 4 mps 729 mmHg 58%
    14:00 +18°C° 0.2 mm 4 mps 729 mmHg 66%
    15:00 +15°C° 0.2 mm 4 mps 730 mmHg 74%
    16:00 +14°C° 0.2 mm 4 mps 730 mmHg 77%
    17:00 +13°C° 0.2 mm 4 mps 730 mmHg 80%
    18:00 +12°C° 0.2 mm 4 mps 731 mmHg 82%
    19:00 +10°C° 0 mm 4 mps 731 mmHg 82%
    20:00 +7°C° 0 mm 4 mps 732 mmHg 82%
    21:00 +5°C° 0 mm 5 mps 733 mmHg 82%
    22:00 +5°C° 0 mm 5 mps 733 mmHg 79%
    23:00 +3°C° 0 mm 5 mps 734 mmHg 76%

    Day after tomorrow, 29 May, Friday

    Time Temperature Precipitation Wind Pressure Humidity
    00:00 +3°C° 0 mm 5 mps 734 mmHg 72%
    01:00 +2°C° 0 mm 5 mps 735 mmHg 71%
    02:00 +1°C° 0 mm 5 mps 735 mmHg 70%
    03:00 0°C° 0 mm 5 mps 736 mmHg 69%
    04:00 +1°C° 0 mm 6 mps 736 mmHg 66%
    05:00 +1°C° 0 mm 6 mps 737 mmHg 63%
    06:00 +2°C° 0 mm 6 mps 737 mmHg 61%
    07:00 +3°C° 0 mm 6 mps 738 mmHg 57%
    08:00 +4°C° 0 mm 6 mps 738 mmHg 53%
    09:00 +4°C° 0 mm 6 mps 738 mmHg 49%
    10:00 +5°C° 0 mm 6 mps 738 mmHg 47%
    11:00 +7°C° 0 mm 6 mps 738 mmHg 46%
    12:00 +7°C° 0 mm 6 mps 739 mmHg 44%
    13:00 +8°C° 0 mm 6 mps 739 mmHg 41%
    14:00 +8°C° 0 mm 6 mps 739 mmHg 39%
    15:00 +9°C° 0 mm 6 mps 739 mmHg 36%
    16:00 +9°C° 0 mm 6 mps 739 mmHg 35%
    17:00 +8°C° 0 mm 6 mps 739 mmHg 35%
    18:00 +8°C° 0 mm 6 mps 740 mmHg 34%
    19:00 +7°C° 0 mm 5 mps 740 mmHg 37%
    20:00 +6°C° 0 mm 4 mps 740 mmHg 41%
    21:00 +4°C° 0 mm 3 mps 741 mmHg 44%
    22:00 +4°C° 0 mm 3 mps 741 mmHg 49%
    23:00 +3°C° 0 mm 3 mps 741 mmHg 54%

    30 May, Saturday

    Time Temperature Precipitation Wind Pressure Humidity
    00:00 +2°C° 0 mm 3 mps 741 mmHg 59%
    01:00 +1°C° 0 mm 3 mps 741 mmHg 62%
    02:00 +1°C° 0 mm 3 mps 741 mmHg 65%
    03:00 +1°C° 0 mm 3 mps 742 mmHg 68%
    04:00 +1°C° 0 mm 4 mps 742 mmHg 63%
    05:00 +4°C° 0 mm 4 mps 742 mmHg 59%
    06:00 +5°C° 0 mm 4 mps 742 mmHg 54%
    07:00 +6°C° 0 mm 4 mps 742 mmHg 49%
    08:00 +7°C° 0 mm 5 mps 742 mmHg 45%
    09:00 +9°C° 0 mm 5 mps 742 mmHg 40%
    10:00 +10°C° 0 mm 5 mps 742 mmHg 38%
    11:00 +10°C° 0 mm 5 mps 742 mmHg 36%
    12:00 +12°C° 0 mm 4 mps 742 mmHg 34%
    13:00 +12°C° 0 mm 4 mps 742 mmHg 33%
    14:00 +13°C° 0 mm 4 mps 742 mmHg 33%
    15:00 +13°C° 0 mm 4 mps 742 mmHg 32%
    16:00 +13°C° 0 mm 3 mps 742 mmHg 34%
    17:00 +12°C° 0 mm 3 mps 742 mmHg 36%
    18:00 +12°C° 0 mm 3 mps 742 mmHg 38%
    19:00 +12°C° 0 mm 2 mps 742 mmHg 44%
    20:00 +9°C° 0 mm 2 mps 742 mmHg 50%
    21:00 +9°C° 0 mm 1 mps 742 mmHg 56%
    22:00 +7°C° 0 mm 1 mps 743 mmHg 59%
    23:00 +6°C° 0 mm 1 mps 743 mmHg 63%

    31 May, Sunday

    Time Temperature Precipitation Wind Pressure Humidity
    00:00 +5°C° 0 mm 1 mps 743 mmHg 66%
    01:00 +5°C° 0 mm 1 mps 743 mmHg 69%
    02:00 +4°C° 0 mm 1 mps 743 mmHg 71%
    03:00 +4°C° 0 mm 1 mps 743 mmHg 73%
    04:00 +5°C° 0 mm 1 mps 743 mmHg 67%
    05:00 +7°C° 0 mm 1 mps 743 mmHg 61%
    06:00 +9°C° 0 mm 1 mps 743 mmHg 55%
    07:00 +11°C° 0 mm 1 mps 743 mmHg 49%
    08:00 +12°C° 0 mm 1 mps 743 mmHg 43%
    09:00 +14°C° 0 mm 2 mps 743 mmHg 37%
    10:00 +14°C° 0 mm 2 mps 743 mmHg 37%
    11:00 +15°C° 0 mm 2 mps 743 mmHg 36%
    12:00 +15°C° 0 mm 2 mps 743 mmHg 36%
    13:00 +16°C° 0 mm 2 mps 743 mmHg 35%
    14:00 +16°C° 0 mm 2 mps 742 mmHg 35%
    15:00 +18°C° 0 mm 1 mps 742 mmHg 34%
    16:00 +16°C° 0 mm 1 mps 742 mmHg 35%
    17:00 +16°C° 0 mm 1 mps 743 mmHg 37%
    18:00 +16°C° 0 mm 1 mps 743 mmHg 38%
    19:00 +14°C° 0 mm 1 mps 743 mmHg 45%
    20:00 +12°C° 0 mm 1 mps 743 mmHg 51%
    21:00 +9°C° 0 mm 0 mps 743 mmHg 58%
    22:00 +8°C° 0 mm 0 mps 743 mmHg 60%
    23:00 +7°C° 0 mm 0 mps 743 mmHg 62%

    1 June, Monday

    Time Temperature Precipitation Wind Pressure Humidity
    00:00 +6°C° 0 mm 0 mps 744 mmHg 64%
    01:00 +6°C° 0 mm 0 mps 744 mmHg 66%
    02:00 +5°C° 0 mm 0 mps 744 mmHg 69%
    03:00 +5°C° 0 mm 0 mps 744 mmHg 71%
    04:00 +7°C° 0 mm 0 mps 744 mmHg 65%
    05:00 +9°C° 0 mm 0 mps 744 mmHg 59%
    06:00 +11°C° 0 mm 0 mps 744 mmHg 54%
    07:00 +13°C° 0 mm 0 mps 744 mmHg 48%
    08:00 +15°C° 0 mm 0 mps 744 mmHg 42%
    09:00 +17°C° 0 mm 0 mps 744 mmHg 36%
    10:00 +18°C° 0 mm 0 mps 743 mmHg 34%
    11:00 +19°C° 0 mm 0 mps 743 mmHg 31%
    12:00 +20°C° 0 mm 0 mps 743 mmHg 29%
    13:00 +20°C° 0 mm 0 mps 742 mmHg 29%
    14:00 +20°C° 0 mm 0 mps 742 mmHg 29%
    15:00 +22°C° 0 mm 1 mps 742 mmHg 28%
    16:00 +21°C° 0 mm 1 mps 742 mmHg 29%
    17:00 +21°C° 0 mm 1 mps 741 mmHg 30%
    18:00 +20°C° 0 mm 1 mps 741 mmHg 30%
    19:00 +18°C° 0 mm 1 mps 741 mmHg 37%
    20:00 +15°C° 0 mm 1 mps 741 mmHg 44%
    21:00 +13°C° 0 mm 1 mps 741 mmHg 51%
    22:00 +12°C° 0 mm 1 mps 741 mmHg 52%
    23:00 +11°C° 0 mm 1 mps 741 mmHg 54%
    Show more